Other Public Products
Issued by NWS Grand Forks, ND

Home | Current Version | Previous Version | Text Only | Print | Product List | Glossary On
Versions: 1 2 3 4 5 6 7 8 9 10 11 12 13 14 15 16 17 18 19 20 21 22 23 24 25 26 27 28 29 30 31 32 33 34 35 36 37 38 39 40 41 42 43 44 45 46 47 48 49 50
000
FPUS83 KFGF 050731
OPUFGF
PRAIRIE TO PINES WEATHER ROUNDUP
NATIONAL WEATHER SERVICE EASTERN NORTH DAKOTA/GRAND FORKS ND
200 AM CDT SAT SEP 05 2015

 **SATELLITE DATA USED TO AUGMENT SKY COVER AT AUTOMATED STATIONS**
 *****  WEATHER ACROSS EASTERN NORTH DAKOTA  *****

CITY           SKY/WX    TMP DP  RH WIND       PRES   REMARKS
GRAND FORKS    MOCLDY    64  63  94 N7        29.87S
GRAND FORKS AF FOG       64  64 100 NE9       29.88S VSB 1
GRAND CITY NWS   N/A     64 N/A N/A NE7         N/A
BUXTON         NOT AVBL
DEVILS LAKE    CLOUDY    63  57  82 N9        29.89R
FARGO          CLEAR     73  68  84 SE7       29.84R
WAHPETON ARPT  PTSUNNY   72  66  83 SE6       29.84S
$$

 *****  WEATHER ACROSS CENTRAL AND WESTERN NORTH DAKOTA  *****

CITY           SKY/WX    TMP DP  RH WIND       PRES   REMARKS
JAMESTOWN      FOG       64  63  96 CALM      29.85R VSB 3/4
BISMARCK       CLEAR     69  66  90 NE7       29.84R
MINOT          CLOUDY    61  59  93 N14       29.91R FOG
MINOT AFB      CLOUDY    61  61 100 NE15      29.91S FOG
GARRISON         N/A     63  61  93 NE10      29.89R
WILLISTON      CLOUDY    60  56  86 N16       29.91F
DICKINSON      TSTM      62  61  96 NW16      29.94R FOG
HETTINGER      CLOUDY    70  63  78 N8        29.88R
$$

 *****  OTHER OBSERVATIONS NORTHEAST NORTH DAKOTA  *****

CITY           SKY/WX    TMP DP  RH WIND       PRES   REMARKS
WALHALLA       FAIR      61  61 100 MISG      29.92R
LANGDON        FOG       61  61 100 NE12      29.92S VSB 1/4
CAVALIER       CLOUDY    61  61 100 N10G18    29.90S FOG
GRAFTON        FOG       63  63 100 N9        29.90R VSB 1/4
CANDO          CLOUDY    59  59 100 NE13      29.93R FOG
FORT TOTTEN      N/A     65  65 100 NE6       29.95S
ROLLA          CLOUDY    57  57 100 N13       29.96S
RUGBY          CLOUDY    59  59 100 NE13G20   29.93R
 ***** THE ABOVE OBSERVATIONS ARE NON NWS ARE NOT QUALITY
        CONTROLLED AND MAY MIS-REPORT RAIN FOR SNOW...
$$

 *****  OTHER OBSERVATIONS SOUTHEAST NORTH DAKOTA *****

CITY           SKY/WX    TMP DP  RH WIND       PRES   REMARKS
COOPERSTOWN    NOT AVBL
VALLEY CITY    FAIR      68  68 100 CALM      29.86R FOG
OAKES            N/A     66  66 100 NE6       29.84R
GWINNER          N/A     70  70 100 E3        29.84S
SHEYENNE NWR     N/A     67  66  97 E2        29.95S
BUFFALO        NOT AVBL
WYNDMERE         N/A     70  68  94 SE2         N/A
 ***** THE ABOVE OBSERVATIONS ARE NON NWS ARE NOT QUALITY
       CONTROLLED AND MAY MIS-REPORT RAIN FOR SNOW...
$$

  *****  WEATHER ACROSS NORTHERN MINNESOTA  *****

CITY           SKY/WX    TMP DP  RH WIND       PRES   REMARKS
FLAG ISLAND    CLOUDY    68  66  94 NW7       29.89R FOG
WARROAD        CLOUDY    64  61  88 CALM      29.91R
ROSEAU         MOCLDY    63  57  82 CALM      29.90R HAZE
HALLOCK        CLOUDY    64  63  94 CALM      29.89R FOG
THF RVR FALLS  MOCLDY    70  70 100 NE8       29.89R
HALSTAD        NOT AVBL
FOSSTON        CLOUDY    70  66  88 CALM      29.90R
BAUDETTE       CLOUDY    72  69  90 S3        29.91R
WASKISH        DRIZZLE   70  66  88 E3        29.90S
CROOKSTON      CLEAR     70  66  88 NE5       29.87S
$$
  *****  WEATHER ACROSS CENTRAL AND WEST MINNESOTA  *****

CITY           SKY/WX    TMP DP  RH WIND       PRES   REMARKS
BEMIDJI        MOCLDY    70  68  95 SE10      29.91S
PARK RAPIDS    LGT RAIN  74  70  87 SE8       29.90F
WADENA         CLOUDY    72  70  94 SE9       29.89S
DETROIT LAKES  PTCLDY    72  68  88 SE6       29.90S
MOORHEAD       CLEAR     72  68  88 SE6       29.85S
FERGUS FALLS   PTCLDY    73  70  88 SE7       29.85S
ELBOW LAKE     PTSUNNY   73  70  92 SE8       29.86S
MORRIS MN      CLEAR     72  72 100 SE6       29.85R
STAPLES        LGT RAIN  72  66  83 SE5       29.91R
WHEATON        PTCLDY    68  66  94 CALM      29.85S
$$
  *****  WEATHER ELSEWHERE ACROSS MINNESOTA  *****

CITY           SKY/WX    TMP DP  RH WIND       PRES   REMARKS
DULUTH         MOCLDY    65  61  87 SE10      29.98F
INTRNTL FALLS  TSTM      67  65  93 CALM      29.93R
ELY            TSTM      64  63  94 E6        30.01F
CLOQUET        MOCLDY    63  59  88 CALM      29.98F
BRAINERD       CLOUDY    73  72  96 CALM      29.93S
HIBBING        CLOUDY    65  64  97 SE6       29.98F
ALEXANDRIA     MOCLDY    72  70  93 SE9       29.90S
SAINT CLOUD    MOCLDY    73  67  81 SE7       29.92S
MINNEAPOLIS    MOCLDY    76  70  82 SE6       29.94S
$$

  *****  WEATHER ACROSS SOUTH DAKOTA  *****

CITY           SKY/WX    TMP DP  RH WIND       PRES   REMARKS
SIOUX FALLS    CLEAR     76  68  76 S12       29.85F
BROOKINGS      CLEAR     73  66  78 S12G18    29.87F
WATERTOWN      CLEAR     74  69  85 S9        29.85S
HURON          PTCLDY    74  71  91 SE9       29.78F
SISSETON         N/A     69  68  96 S3        29.82S
ABERDEEN       PTCLDY    71  69  93 NE3       29.81S
MITCHELL       PTCLDY    75  70  84 SE9       29.80S
PIERRE         PTCLDY    68  66  93 NE7       29.76R
MOBRIDGE       PTCLDY    72  72 100 VRB3      29.78R
RAPID CITY     CLOUDY    70  59  68 E5        29.83R
$$

  *****  SOME WEATHER IN NEARBY STATES *****

CITY           SKY/WX    TMP DP  RH WIND       PRES   REMARKS
GLASGOW MT     CLOUDY    56  46  69 NE18      29.96F
GREAT FALLS MT HVY RAIN  49  48  97 NE12      29.97R FOG
CHEYENNE WY    CLOUDY    64  47  53 W10       30.02R
SCOTTSBLUFF NE CLOUDY    69  54  58 SE9       29.87S
OMAHA NE       MOCLDY    78  69  73 S15       29.92S
DES MOINES IA  CLOUDY    77  69  76 S7        29.98R
DAVENPORT IA   PTCLDY    71  69  93 S5        30.02S
CHICAGO IL     PTCLDY    72  67  84 E3        30.04S
EAU CLAIRE WI  PTCLDY    72  67  84 SE6       30.00R
LA CROSSE WI   LGT RAIN  76  72  87 E5        30.01R
$$

  *****  SOME NATIONAL WEATHER *****

CITY           SKY/WX    TMP DP  RH WIND       PRES   REMARKS
LA GUARDIA NY  PTCLDY    69  61  75 E10       30.22S
RALEIGH NC     PTCLDY    71  68  90 NE5       30.09F FOG
ATLANTA GA     PTCLDY    75  68  78 E9        30.05R
NEW ORLEANS LA PTCLDY    78  74  87 CALM      29.98S
OKLAHOMA CITY  PTCLDY    76  67  73 S7        29.97R
ALBUQUERQUE NM CLOUDY    64  58  80 SE6       30.16S
SALT LAKE CITY PTCLDY    77  36  22 S20G28    29.79R
LOS ANGELES CA PTCLDY    69  61  75 VRB5      29.88R
BOISE ID       PTCLDY    50  43  77 NW5       29.88R
SEATTLE WA     CLEAR     53  47  79 CALM      30.02R
$$

*** WEATHER ACROSS MANITOBA...SASKATCHEWAN AND ONTARIO ***
                ***ONTARIO***

CITY           SKY/WX    TMP DP  RH WIND       PRES   REMARKS
GERALDTON      PTCLDY    57  55  94 SE3       30.06F
THUNDER BAY    PTCLDY    59  57  94 NE5       30.03S
SIOUX LOOKOUT  PTCLDY    66  63  88 S7        29.93R
TORONTO        CLEAR     70  61  73 E5        30.13S
BIG TROUT LK   CLOUDY    66  63  88 NE5       29.93F
PICKLE LAKE    NOT AVBL
DRYDEN         LGT RAIN  68  64  88 S10       29.93R
KENORA         CLOUDY    68  66  94 SW7       29.90R
$$
                *** MANITOBA***

CITY           SKY/WX    TMP DP  RH WIND       PRES   REMARKS
BRANDON        CLOUDY    59  55  88 NE5       29.97R
DAUPHIN        CLOUDY    57  52  82 NW6       30.01R
ISLAND LAKE    LGT RAIN  57  57 100 NE12G20   29.94F
PILOT MOUND      N/A     57  57 100 N9          N/A
THE PAS        MOCLDY    61  50  67 N9        30.07S
THOMPSON       MOCLDY    50  45  81 N5        30.07R
WINNIPEG       FOG       64  64 100 W5        29.90R VSB 3/4
LYNN LAKE      MOCLDY    48  46  93 NW6       30.13R
CHURCHILL      FOG       46  45  93 N9        30.09S VSB 1
$$
                ***SASKATCHEWAN***

CITY           SKY/WX    TMP DP  RH WIND       PRES   REMARKS
ESTEVAN        CLOUDY    55  54  94 NE16      29.98
KINDERSLEY     LGT RAIN  48  46  93 NE7       30.12F
LLOYDMINSTER   CLOUDY    43  41  93 NE3       30.18S
PRINCE ALBERT  CLOUDY    50  45  81 N6        30.12F
REGINA         MOCLDY    50  46  87 N7        30.03
YORKTON        CLEAR     50  48  93 N8        30.03F



USA.gov is the U.S. government's official web portal to all federal, state and local government web resources and services.